PBO Station Position Time Series. Reference Frame : NAM14
Format Version,1.1.0
4-character ID,LEV1
Station name,LevelIsland1CORS
Begin Date, 2001-06-21
End Date, 2007-08-28
Release Date, 2021-02-19
Reference position, 56.4656800208 North Latitude, -133.0927822942 East Longitude, 25.21201 meters elevation,
Date, North (mm), East (mm), Vertical (mm), North Std. Deviation (mm), East Std. Deviation (mm),              Vertical Std. Deviation (mm), Quality,
2001-06-21,0.00, 0.00, 0.00, 2.49, 1.65, 7.67, repro,
2001-06-22,0.31, 0.27, 4.03, 2.54, 1.67, 7.60, repro,
2001-06-23,-0.40, 0.08, -1.69, 2.52, 1.65, 7.74, repro,
2001-06-24,0.59, 0.22, 1.57, 2.58, 1.69, 7.72, repro,
2001-06-25,-1.32, 0.46, 7.89, 2.53, 1.68, 7.57, repro,
2001-06-26,0.70, 0.11, 5.62, 2.49, 1.63, 7.42, repro,
2001-06-27,-0.20, 1.75, 0.37, 2.58, 1.68, 7.77, repro,
2001-06-28,-1.32, -0.38, 8.06, 2.52, 1.65, 7.44, repro,
2001-06-29,-1.82, 0.33, -8.03, 2.55, 1.65, 7.53, repro,
2001-06-30,0.57, -0.41, 1.21, 2.49, 1.63, 7.48, repro,
2001-07-01,-1.59, 3.47, 4.43, 2.48, 1.63, 7.46, repro,
2001-07-02,1.77, 0.18, -3.32, 2.45, 1.61, 7.33, repro,
2001-07-03,1.56, 0.49, -1.02, 2.97, 1.84, 8.86, repro,
2001-07-04,0.81, 1.02, -7.06, 2.59, 1.69, 7.79, repro,
2001-07-05,0.82, 0.29, 2.69, 2.44, 1.62, 7.39, repro,
2001-07-06,3.14, 0.04, 6.44, 2.56, 1.66, 7.59, repro,
2001-07-07,1.28, -0.90, 2.84, 2.47, 1.62, 7.48, repro,
2001-07-08,-0.69, 0.83, -0.89, 2.53, 1.67, 7.58, repro,
2001-07-09,3.41, 0.65, -4.52, 2.54, 1.66, 7.57, repro,
2001-07-10,-0.61, -0.38, -4.33, 2.67, 1.82, 8.06, repro,
2001-07-11,-1.21, 0.19, 1.70, 2.47, 1.63, 7.44, repro,
2001-07-12,0.35, 0.97, 0.10, 2.48, 1.65, 7.46, repro,
2001-07-13,2.50, 0.05, -4.29, 2.55, 1.71, 7.82, repro,
2001-07-14,-0.81, -0.20, -5.87, 2.49, 1.66, 7.68, repro,
2001-07-15,0.11, 0.29, 0.53, 2.44, 1.64, 7.39, repro,
2001-07-16,-0.81, 1.64, 3.40, 2.55, 1.69, 7.62, repro,
2001-07-17,0.75, -1.62, 0.42, 2.44, 1.60, 7.37, repro,
2001-07-18,0.07, 0.21, -1.86, 2.54, 1.68, 7.62, repro,
2001-07-19,2.44, 1.04, -8.54, 2.47, 1.62, 7.43, repro,
2001-07-20,2.22, -0.18, -0.94, 2.60, 1.69, 7.73, repro,
2001-07-21,0.66, 1.51, -3.67, 2.52, 1.68, 7.60, repro,
2001-07-22,-0.46, 1.28, -3.67, 2.52, 1.66, 7.58, repro,
2001-07-23,-3.09, -0.27, -2.02, 2.53, 1.67, 7.64, repro,
2001-07-24,-0.90, 0.69, 3.83, 2.48, 1.65, 7.53, repro,
2001-07-25,0.31, 2.14, 0.33, 2.54, 1.68, 7.59, repro,
2001-07-26,1.39, 0.84, -1.77, 2.59, 1.70, 7.72, repro,
2001-07-27,-0.87, -0.64, -0.14, 2.50, 1.69, 7.60, repro,
2001-07-28,-1.42, 1.00, 5.92, 2.58, 1.74, 7.82, repro,
2001-07-29,-0.35, 0.17, 0.79, 2.62, 1.77, 7.98, repro,
2001-07-30,0.73, 0.49, 0.63, 2.75, 1.79, 8.03, repro,
2001-07-31,-0.60, -0.14, 4.17, 2.71, 1.79, 8.34, repro,
2001-08-01,0.45, 0.79, 0.38, 2.59, 1.70, 7.80, repro,
2001-08-02,-0.84, 0.87, 6.13, 2.58, 1.70, 7.77, repro,
2001-08-03,-0.02, -0.67, 8.50, 2.66, 1.78, 8.09, repro,
2001-08-04,-3.26, 0.23, 11.72, 2.55, 1.72, 7.76, repro,
2001-08-05,-0.39, 1.33, 4.56, 2.60, 1.72, 7.80, repro,
2001-08-06,0.05, 0.96, 10.13, 2.61, 1.80, 8.07, repro,
2001-08-07,-1.01, -0.09, 5.11, 2.63, 1.76, 7.97, repro,
2001-08-08,-1.73, 0.83, 0.45, 2.78, 1.85, 8.53, repro,
2001-08-09,0.05, 0.06, 7.08, 2.79, 1.80, 8.35, repro,
2001-08-10,-3.02, 2.03, 6.96, 2.75, 1.80, 8.15, repro,
2001-08-11,-0.28, 0.15, -0.54, 2.79, 1.81, 8.18, repro,
2001-08-12,-0.03, -0.81, 2.16, 2.68, 1.75, 7.86, repro,
2001-08-13,1.85, -0.43, 5.53, 2.61, 1.74, 7.83, repro,
2001-08-14,0.60, -0.02, 5.63, 2.57, 1.69, 7.88, repro,
2001-08-15,-1.60, 0.98, 4.71, 2.58, 1.71, 7.82, repro,
2001-08-16,0.36, -0.69, 2.86, 2.49, 1.64, 7.51, repro,
2001-08-17,-3.03, -1.77, -2.76, 3.13, 2.05, 8.95, repro,
2001-08-18,0.77, -2.90, -5.51, 2.68, 1.74, 8.18, repro,
2001-08-19,0.70, -0.10, 12.24, 2.63, 1.77, 7.91, repro,
2001-08-20,-0.85, -2.78, 17.26, 2.69, 1.78, 8.03, repro,
2001-08-21,-3.27, -2.15, 11.71, 2.68, 1.77, 8.21, repro,
2001-08-22,-0.16, 0.62, -1.76, 2.55, 1.69, 7.68, repro,
2001-08-23,-0.60, -1.69, 12.67, 2.57, 1.75, 7.86, repro,
2001-08-24,-0.27, -1.41, 16.13, 2.60, 1.75, 7.95, repro,
2001-08-25,2.11, -1.55, 15.15, 2.57, 1.69, 7.68, repro,
2001-08-26,0.28, -1.52, 15.07, 2.67, 1.74, 7.97, repro,
2001-08-27,1.32, -2.12, 14.23, 2.62, 1.75, 7.85, repro,
2001-08-28,0.34, -0.89, 12.11, 2.71, 1.79, 8.10, repro,
2001-08-29,0.98, -0.07, 17.61, 2.65, 1.76, 7.91, repro,
2001-08-30,1.67, -0.57, 12.60, 2.66, 1.75, 7.99, repro,
2001-08-31,-1.42, -0.97, 27.46, 2.84, 1.88, 8.86, repro,
2001-09-01,-1.43, -0.75, 26.74, 2.54, 1.68, 7.58, repro,
2001-09-02,1.18, -3.18, 24.34, 2.72, 1.82, 8.46, repro,
2001-09-03,1.90, -3.01, 23.66, 2.73, 1.76, 8.13, repro,
2001-09-04,-1.80, -2.04, 13.77, 2.83, 1.86, 8.58, repro,
2001-09-05,-0.39, -0.89, 18.98, 2.73, 1.88, 8.53, repro,
2001-09-06,-0.68, -2.93, 17.73, 2.61, 1.76, 8.06, repro,
2001-09-07,-1.74, -0.56, 11.76, 2.47, 1.66, 7.59, repro,
2001-09-08,-2.10, -3.04, 15.15, 2.61, 1.71, 8.02, repro,
2001-09-09,1.15, -3.59, 13.71, 2.58, 1.72, 8.06, repro,
2001-09-10,0.72, 0.30, 8.07, 2.48, 1.63, 7.49, repro,
2001-09-11,-2.12, -1.30, 10.17, 2.57, 1.75, 8.06, repro,
2001-09-12,-0.37, -1.43, 14.15, 2.68, 1.78, 8.01, repro,
2001-09-13,-1.46, -1.83, 8.74, 2.72, 1.79, 7.90, repro,
2001-09-14,-0.07, -0.81, 8.32, 2.47, 1.64, 7.47, repro,
2001-09-15,-0.57, -1.72, 13.48, 2.54, 1.72, 7.94, repro,
2001-09-16,-0.66, 1.13, 9.73, 2.46, 1.65, 7.51, repro,
2001-09-17,-0.93, -0.11, 23.15, 2.44, 1.64, 7.48, repro,
2001-09-18,1.30, -0.54, 15.38, 2.52, 1.65, 7.64, repro,
2001-09-19,3.83, -0.79, 15.63, 2.55, 1.70, 7.89, repro,
2001-09-20,0.33, -1.72, 9.42, 2.69, 1.79, 8.36, repro,
2001-09-21,0.92, -1.13, 11.74, 2.59, 1.69, 7.88, repro,
2001-09-22,1.91, -0.24, 10.73, 2.52, 1.68, 7.84, repro,
2001-09-23,1.55, -1.82, 12.87, 2.67, 1.75, 7.94, repro,
2001-09-24,-2.32, -0.82, 28.33, 2.44, 1.62, 7.37, repro,
2001-09-25,-1.24, 0.31, 22.90, 2.89, 2.00, 9.06, repro,
2001-09-26,6.00, -1.60, 15.68, 3.50, 2.19, 9.94, repro,
2001-09-27,-0.50, -1.09, 12.42, 3.03, 1.99, 9.23, repro,
2001-09-28,2.42, 0.54, 14.76, 2.69, 1.78, 8.24, repro,
2001-09-29,-3.79, -3.25, 18.95, 3.62, 2.35, 11.50, repro,
2001-09-30,-1.27, -0.80, 7.08, 4.06, 2.67, 11.02, repro,
2001-10-01,3.03, 1.70, 23.79, 4.52, 2.96, 12.90, repro,
2001-10-02,-4.22, 6.19, 1.81, 4.59, 2.96, 13.32, repro,
2001-10-03,-0.97, 1.90, 7.71, 4.14, 2.50, 11.26, repro,
2001-10-04,-1.87, 0.63, 12.60, 3.71, 2.65, 11.45, repro,
2001-10-05,1.68, 1.17, 7.81, 3.78, 2.45, 11.03, repro,
2001-10-06,0.12, -0.05, 25.50, 2.60, 1.75, 7.97, repro,
2001-10-07,-0.19, -0.88, 19.86, 2.62, 1.72, 8.09, repro,
2001-10-08,1.28, 1.35, 16.58, 2.69, 1.77, 8.24, repro,
2001-10-09,-0.06, 0.31, 28.95, 2.78, 1.81, 8.14, repro,
2001-10-10,-0.08, 0.02, 13.77, 2.51, 1.65, 7.50, repro,
2001-10-11,-3.39, 0.86, 9.87, 2.66, 1.74, 7.96, repro,
2001-10-12,-1.16, 2.82, 22.51, 2.77, 1.84, 8.51, repro,
2001-10-13,-1.43, -0.93, 17.68, 2.53, 1.68, 7.70, repro,
2001-10-14,-0.25, 1.12, 10.65, 2.53, 1.66, 7.68, repro,
2001-10-15,19.85, -0.30, 34.34, 12.92, 6.31, 26.36, repro,
2001-10-16,33.13, -6.02, 1.13, 46.58, 52.76, 87.74, repro,
2001-10-17,48.06, -64.27, 128.61, 88.94, 221.10, 320.42, repro,
2001-10-18,1.14, -3.83, 1.11, 7.60, 4.05, 20.02, repro,
2001-10-19,39.27, -21.35, -12.11, 55.76, 78.12, 104.35, repro,
2001-10-20,26.61, 44.68, 94.70, 62.71, 87.77, 115.38, repro,
2001-10-21,44.15, -48.24, -45.66, 53.35, 69.93, 95.20, repro,
2001-10-22,32.57, 29.38, -116.50, 29.34, 25.62, 123.87, repro,
2001-10-23,-0.79, -2.31, 18.02, 7.93, 4.30, 21.31, repro,
2001-10-24,-1.45, -2.18, 9.90, 8.61, 4.69, 22.30, repro,
2001-10-25,-5.21, -3.32, -2.63, 5.65, 3.24, 17.31, repro,
2001-10-26,5.37, -32.72, -30.78, 11.70, 13.27, 36.12, repro,
2001-10-27,-9.89, 79.84, 99.35, 72.18, 111.59, 115.95, repro,
2001-10-28,-2.18, -9.42, -11.91, 11.04, 5.38, 30.84, repro,
2001-10-29,-3.36, -27.94, -7.21, 9.71, 5.39, 28.93, repro,
2001-10-30,6.43, -31.83, -20.89, 10.43, 6.00, 32.93, repro,
2001-10-31,-9.75, -2.98, 7.05, 6.00, 3.40, 18.39, repro,
2001-11-01,80.93, -88.78, -91.48, 183.52, 221.22, 286.49, repro,
2001-11-02,-10.08, -3.04, -4.32, 6.39, 4.00, 20.96, repro,
2001-11-03,9.80, 8.86, -7.47, 49.05, 87.14, 127.55, repro,
2001-11-04,5.67, 8.61, 35.97, 39.31, 14.14, 68.50, repro,
2001-11-05,-11.14, -4.01, 10.57, 4.32, 2.97, 14.34, repro,
2001-11-06,22.53, -56.32, -1.75, 11.39, 7.03, 36.15, repro,
2001-11-07,-1.65, 1.02, -4.19, 2.78, 1.78, 8.19, repro,
2001-11-08,-1.26, 1.06, -2.36, 2.73, 1.73, 8.02, repro,
2001-11-09,-1.64, -0.56, 3.15, 2.81, 1.83, 8.44, repro,
2001-11-10,-4.09, 1.47, 6.57, 2.73, 1.79, 8.32, repro,
2001-11-11,0.08, 3.15, -1.63, 2.63, 1.74, 7.76, repro,
2001-11-12,-0.23, 1.95, 3.37, 2.63, 1.73, 7.78, repro,
2001-11-13,-1.32, 1.82, 13.62, 2.66, 1.74, 7.80, repro,
2001-11-14,-3.51, 0.05, 12.39, 2.70, 1.74, 7.81, repro,
2001-11-15,-4.35, 1.44, 7.72, 2.66, 1.73, 7.91, repro,
2001-11-16,-0.55, 1.18, 5.72, 2.79, 1.80, 8.46, repro,
2001-11-17,-0.89, 1.57, 3.40, 2.52, 1.66, 7.51, repro,
2001-11-18,-3.12, 1.35, -5.47, 2.59, 1.73, 7.75, repro,
2001-11-19,-0.44, 2.54, 1.21, 2.75, 1.77, 8.09, repro,
2001-11-20,-4.50, -0.86, 8.94, 2.85, 1.89, 8.42, repro,
2001-11-21,-2.56, -0.61, 10.10, 3.12, 2.09, 9.59, repro,
2001-11-22,0.22, 0.24, 0.80, 2.72, 1.76, 7.93, repro,
2001-11-23,-2.19, -0.74, 0.14, 2.88, 1.79, 8.44, repro,
2001-11-24,1.01, 2.64, 3.93, 3.90, 2.52, 11.24, repro,
2001-11-25,-2.91, -0.87, -9.63, 3.47, 2.33, 10.68, repro,
2001-11-26,1.28, 0.39, -11.71, 2.70, 1.75, 7.95, repro,
2001-11-27,2.07, 1.61, -6.25, 2.56, 1.69, 7.65, repro,
2001-11-28,2.13, 2.10, -2.05, 2.60, 1.74, 7.67, repro,
2001-11-29,-0.46, 0.50, 1.04, 2.52, 1.67, 7.76, repro,
2001-11-30,-2.33, 1.52, 3.58, 2.55, 1.72, 7.68, repro,
2001-12-01,1.04, 1.23, 9.62, 2.47, 1.62, 7.35, repro,
2001-12-02,1.07, 1.26, 5.20, 3.13, 2.05, 9.67, repro,
2001-12-03,-1.20, 2.76, -4.79, 2.58, 1.75, 7.67, repro,
2001-12-04,-0.01, -0.15, -0.33, 2.61, 1.70, 7.65, repro,
2001-12-05,0.45, 0.39, 3.30, 2.55, 1.68, 7.62, repro,
2001-12-06,0.89, -1.29, 1.22, 2.55, 1.68, 7.64, repro,
2001-12-07,0.17, 0.45, -2.79, 2.51, 1.66, 7.56, repro,
2001-12-08,-0.78, 0.94, 7.96, 2.53, 1.70, 7.54, repro,
2001-12-09,-1.13, 0.70, 5.19, 2.54, 1.65, 7.45, repro,
2001-12-10,-1.29, 1.63, 9.54, 2.70, 1.73, 7.88, repro,
2001-12-11,0.68, 0.46, -6.37, 2.54, 1.72, 7.80, repro,
2001-12-12,3.52, 2.17, -4.43, 2.71, 1.74, 8.19, repro,
2001-12-13,10.11, 5.28, 1.02, 2.62, 1.68, 7.83, repro,
2001-12-14,0.52, 1.73, 12.21, 2.53, 1.69, 7.52, repro,
2001-12-15,-2.34, 1.81, 8.11, 2.71, 1.79, 8.12, repro,
2001-12-16,-1.68, -0.37, 3.44, 2.63, 1.73, 7.82, repro,
2001-12-17,-1.86, 2.47, 7.11, 2.67, 1.76, 8.00, repro,
2001-12-18,-0.46, 1.97, 7.13, 2.62, 1.71, 7.88, repro,
2001-12-19,-3.18, 0.33, 8.54, 2.62, 1.71, 7.70, repro,
2001-12-20,1.26, 0.49, 2.50, 2.56, 1.69, 7.85, repro,
2001-12-21,2.24, -0.12, 5.68, 2.58, 1.70, 7.93, repro,
2001-12-22,0.36, 3.63, -2.67, 2.61, 1.73, 7.96, repro,
2001-12-23,1.19, 2.63, -0.90, 2.64, 1.70, 7.83, repro,
2001-12-24,0.62, 3.09, -8.10, 2.94, 1.91, 8.80, repro,
2001-12-25,0.23, 1.94, -8.40, 2.55, 1.68, 7.77, repro,
2001-12-26,-0.08, 3.66, -6.97, 2.55, 1.66, 7.61, repro,
2001-12-27,0.17, 1.97, 0.35, 2.52, 1.66, 7.56, repro,
2001-12-28,1.54, 2.22, 0.75, 2.50, 1.65, 7.50, repro,
2001-12-29,2.70, 5.59, -8.76, 2.57, 1.70, 7.72, repro,
2001-12-30,-3.34, 3.93, -4.04, 2.68, 1.78, 8.17, repro,
2001-12-31,-0.38, 2.01, -11.63, 2.78, 1.84, 8.19, repro,
2002-01-01,1.43, 1.96, -2.96, 2.62, 1.71, 7.72, repro,
2002-01-02,-2.74, 2.04, 5.37, 2.64, 1.73, 7.94, repro,
2002-01-03,1.89, 2.31, 3.57, 2.61, 1.73, 7.87, repro,
2002-01-04,-1.16, 3.16, -2.74, 2.63, 1.77, 7.78, repro,
2002-01-05,-0.75, 2.87, 2.95, 2.72, 1.83, 8.12, repro,
2002-01-06,-3.84, 1.69, 4.87, 2.73, 1.78, 8.17, repro,
2002-01-07,1.18, 0.29, 8.56, 2.76, 1.87, 8.44, repro,
2002-01-08,1.29, 1.30, -1.16, 2.71, 1.79, 8.27, repro,
2002-01-09,0.88, 2.20, -0.52, 2.60, 1.71, 7.62, repro,
2002-01-10,2.58, 4.23, -15.20, 3.04, 1.94, 9.16, repro,
2002-01-11,-2.37, 3.21, -10.70, 2.92, 1.86, 8.68, repro,
2002-01-12,1.54, 0.76, -12.74, 2.70, 1.77, 7.99, repro,
2002-01-13,2.23, 2.57, -7.71, 2.71, 1.78, 8.18, repro,
2002-01-14,0.73, 2.01, -14.17, 2.57, 1.72, 7.92, repro,
2002-01-15,0.88, 2.47, -15.27, 2.56, 1.75, 7.75, repro,
2002-01-16,-0.27, 2.04, -15.08, 2.66, 1.83, 8.43, repro,
2002-01-17,-1.39, 1.62, -13.13, 2.61, 1.80, 8.17, repro,
2002-01-19,-1.60, 3.08, -1.50, 2.58, 1.69, 7.85, repro,
2002-01-20,4.15, 3.95, -0.14, 2.53, 1.69, 7.71, repro,
2002-01-21,0.52, 3.65, -4.86, 2.52, 1.66, 7.58, repro,
2002-01-22,-0.08, 4.09, -3.53, 2.55, 1.64, 7.59, repro,
2002-01-23,-1.38, 2.77, -1.72, 2.56, 1.64, 7.53, repro,
2002-01-24,4.16, -3.31, 1.07, 2.58, 1.66, 7.81, repro,
2002-01-25,0.41, 2.83, -4.92, 2.52, 1.67, 7.67, repro,
2002-01-26,0.12, 2.86, -3.87, 2.47, 1.62, 7.41, repro,
2002-01-27,1.21, 3.26, -14.25, 2.57, 1.66, 7.68, repro,
2002-01-28,-1.42, 2.74, -16.55, 2.49, 1.64, 7.53, repro,
2002-01-29,0.03, 4.29, -16.86, 2.50, 1.63, 7.44, repro,
2002-01-30,-2.44, 2.80, -5.06, 2.56, 1.67, 7.79, repro,
2002-01-31,0.20, 4.32, -9.65, 2.48, 1.62, 7.42, repro,
2002-02-01,1.10, 3.79, -17.26, 2.68, 1.78, 8.27, repro,
2002-02-02,1.48, 5.75, -9.60, 2.96, 1.94, 9.09, repro,
2002-02-03,0.78, 2.81, -6.13, 2.61, 1.67, 7.66, repro,
2002-02-04,-2.42, 4.87, -1.01, 2.72, 1.79, 7.97, repro,
2002-02-05,0.35, 5.73, -10.34, 2.77, 1.82, 8.25, repro,
2002-02-06,-0.91, 5.69, -10.68, 2.66, 1.72, 7.80, repro,
2002-02-07,-3.77, 4.34, -0.55, 2.67, 1.72, 7.89, repro,
2002-02-08,-0.46, 2.40, -16.32, 2.70, 1.76, 8.25, repro,
2002-02-09,-0.35, 3.99, -11.04, 2.60, 1.68, 7.65, repro,
2002-02-10,-2.87, 1.00, -19.57, 2.59, 1.70, 7.73, repro,
2002-02-11,2.42, 4.18, -19.92, 2.66, 1.72, 7.92, repro,
2002-02-12,-0.53, 3.91, -7.00, 2.64, 1.73, 7.76, repro,
2002-02-13,-4.99, 1.32, -20.09, 3.74, 2.47, 11.38, repro,
2002-02-14,-0.41, 5.03, -9.56, 2.83, 1.87, 8.43, repro,
2002-02-15,-0.36, 1.62, -7.15, 2.73, 1.84, 8.49, repro,
2002-02-16,0.52, 4.03, -5.72, 2.57, 1.71, 7.70, repro,
2002-02-17,0.75, 2.33, -10.23, 2.56, 1.69, 7.86, repro,
2002-02-18,-1.27, 4.42, -5.88, 2.85, 1.89, 8.92, repro,
2002-02-19,2.71, 2.60, -3.45, 2.76, 1.81, 8.28, repro,
2002-02-20,1.10, 3.51, 2.16, 2.89, 1.92, 8.99, repro,
2002-02-21,0.78, 3.03, -13.96, 2.64, 1.77, 8.06, repro,
2002-02-22,2.79, 4.66, -18.07, 2.61, 1.74, 7.75, repro,
2002-02-23,0.97, 5.38, -22.06, 2.57, 1.72, 7.81, repro,
2002-02-24,3.02, 5.37, -16.11, 2.63, 1.75, 7.87, repro,
2002-02-25,-1.82, 5.84, -28.83, 2.68, 1.76, 8.15, repro,
2002-02-26,7.34, -4.13, -46.04, 2.72, 1.79, 8.50, repro,
2002-02-27,3.66, 4.19, -32.07, 2.69, 1.78, 8.39, repro,
2002-02-28,-0.76, 5.11, -25.03, 2.94, 1.92, 9.21, repro,
2002-03-01,2.78, 4.20, -25.98, 2.74, 1.77, 8.49, repro,
2002-03-02,0.65, 2.50, -19.47, 2.62, 1.73, 8.20, repro,
2002-03-03,-0.36, 4.43, -27.58, 3.01, 1.93, 9.20, repro,
2002-03-04,0.86, 5.41, -20.34, 2.59, 1.67, 7.76, repro,
2002-03-05,-4.39, 15.74, -33.96, 49.67, 77.77, 263.86, repro,
2002-03-06,-3.76, 4.12, -24.65, 2.79, 1.81, 8.59, repro,
2002-03-07,0.96, 4.30, -17.71, 2.75, 1.78, 8.31, repro,
2002-03-08,-0.33, 4.63, -18.27, 2.72, 1.72, 8.17, repro,
2002-03-09,0.23, 4.57, -20.12, 2.72, 1.75, 8.15, repro,
2002-03-10,-0.45, 4.86, -15.40, 2.69, 1.81, 8.29, repro,
2002-03-11,-2.33, 3.53, -7.69, 2.58, 1.65, 7.84, repro,
2002-03-12,-2.53, 4.46, -5.25, 2.51, 1.65, 7.69, repro,
2002-03-13,0.93, 3.37, -14.62, 2.50, 1.62, 7.59, repro,
2002-03-14,1.25, 4.60, -12.01, 2.50, 1.64, 7.41, repro,
2002-03-15,-0.58, 5.33, -21.94, 2.51, 1.62, 7.60, repro,
2002-03-16,1.66, 5.20, -20.66, 2.50, 1.61, 7.54, repro,
2002-03-18,-2.02, 4.13, -21.61, 2.67, 1.80, 8.23, repro,
2002-03-19,3.92, 4.91, -21.53, 2.65, 1.74, 7.88, repro,
2002-03-20,1.74, 4.41, -23.90, 2.52, 1.64, 7.66, repro,
2002-03-21,2.23, 3.87, -30.29, 2.51, 1.62, 7.65, repro,
2002-03-22,-0.07, 3.61, -21.16, 2.53, 1.62, 7.68, repro,
2002-03-23,0.33, 4.07, -18.75, 2.57, 1.63, 7.66, repro,
2002-03-24,5.01, 4.44, -30.40, 3.03, 2.04, 9.81, repro,
2002-03-25,-0.84, 2.88, -19.94, 2.51, 1.60, 7.54, repro,
2002-03-26,1.80, 2.70, -18.16, 2.50, 1.61, 7.52, repro,
2002-03-27,-0.07, 3.05, -20.44, 2.54, 1.61, 7.75, repro,
2002-03-28,-0.75, 3.48, -22.22, 2.56, 1.65, 7.79, repro,
2002-03-29,1.42, 4.99, -16.78, 2.46, 1.61, 7.57, repro,
2002-03-30,3.00, 4.44, -25.85, 2.68, 1.73, 8.08, repro,
2002-03-31,3.40, 4.30, -16.37, 2.55, 1.65, 7.70, repro,
2002-04-01,0.38, 3.67, -33.09, 2.56, 1.64, 7.97, repro,
2002-04-02,1.20, 5.25, -27.76, 2.55, 1.68, 7.77, repro,
2002-04-03,2.24, 5.77, -24.08, 2.48, 1.59, 7.49, repro,
2002-04-04,2.16, 5.07, -25.26, 2.51, 1.61, 7.55, repro,
2002-04-05,2.07, 5.77, -17.68, 2.66, 1.69, 7.82, repro,
2002-04-06,1.71, 4.28, -17.31, 2.54, 1.62, 7.60, repro,
2002-04-07,1.41, 4.05, -14.85, 2.50, 1.60, 7.53, repro,
2002-04-08,-1.47, 2.97, -16.13, 2.59, 1.71, 8.02, repro,
2002-04-09,-0.88, 2.04, -16.62, 2.72, 1.75, 8.37, repro,
2002-04-10,2.57, 3.77, -15.07, 2.64, 1.72, 7.99, repro,
2002-04-11,0.11, 5.32, -15.40, 2.50, 1.62, 7.51, repro,
2002-04-12,-1.42, 3.56, -14.18, 2.49, 1.61, 7.49, repro,
2002-04-13,-1.61, 3.87, -8.28, 2.59, 1.71, 7.99, repro,
2002-04-14,-2.03, 3.61, -6.31, 2.53, 1.67, 7.64, repro,
2002-04-15,-0.97, 3.21, -5.09, 2.53, 1.64, 7.62, repro,
2002-04-17,5.49, 11.02, -16.21, 4.92, 3.30, 14.51, repro,
2002-04-18,-0.65, 5.61, -13.53, 3.12, 2.17, 10.23, repro,
2002-04-19,-5.29, 6.51, -27.15, 2.84, 1.86, 8.92, repro,
2002-04-20,-0.35, 2.43, -21.75, 3.11, 2.09, 10.04, repro,
2002-04-21,0.38, 2.14, -11.18, 2.47, 1.62, 7.39, repro,
2002-04-22,-0.21, 2.48, -7.70, 2.65, 1.73, 7.98, repro,
2002-04-23,1.67, 4.27, -15.46, 2.76, 1.85, 8.43, repro,
2002-04-24,1.60, 5.17, -18.95, 2.46, 1.59, 7.33, repro,
2002-04-25,1.33, 3.77, -14.72, 2.59, 1.66, 7.69, repro,
2002-04-26,1.42, 3.14, -14.00, 2.54, 1.64, 7.50, repro,
2002-04-27,1.96, 4.22, -14.33, 2.54, 1.61, 7.49, repro,
2002-04-28,2.37, 4.11, -9.29, 2.48, 1.58, 7.34, repro,
2002-04-29,2.51, 2.85, -13.74, 2.46, 1.61, 7.49, repro,
2002-04-30,0.33, 4.87, -15.06, 2.55, 1.61, 7.47, repro,
2002-05-01,2.09, 3.24, -13.46, 2.54, 1.60, 7.39, repro,
2002-05-02,0.17, 3.82, -10.70, 2.45, 1.56, 7.25, repro,
2002-05-03,-1.12, 3.79, -4.91, 2.50, 1.60, 7.50, repro,
2002-05-04,1.04, 2.74, -16.96, 2.46, 1.57, 7.29, repro,
2002-05-05,0.17, 4.02, -14.09, 2.46, 1.57, 7.28, repro,
2002-05-06,1.18, 5.45, -19.04, 2.58, 1.66, 7.81, repro,
2002-05-07,0.99, 4.91, -19.92, 2.56, 1.63, 7.61, repro,
2002-05-08,1.52, 4.30, -7.91, 2.44, 1.56, 7.25, repro,
2002-05-09,0.10, 3.84, -12.05, 2.46, 1.57, 7.31, repro,
2002-05-10,1.21, 3.46, -12.16, 2.50, 1.58, 7.40, repro,
2002-05-11,2.90, 4.80, -24.16, 2.86, 1.84, 8.36, repro,
2002-05-12,3.89, 3.39, -17.13, 2.56, 1.63, 7.66, repro,
2002-05-13,2.16, 1.93, -22.36, 2.52, 1.60, 7.57, repro,
2002-05-14,1.92, 4.31, -7.40, 2.58, 1.65, 7.71, repro,
2002-05-15,-0.38, 4.23, -13.25, 2.51, 1.59, 7.53, repro,
2002-05-16,-1.45, 2.65, -12.01, 2.48, 1.57, 7.28, repro,
2002-05-17,1.03, 2.47, -16.97, 2.54, 1.57, 7.44, repro,
2002-05-18,2.60, 3.33, -15.85, 2.51, 1.60, 7.60, repro,
2002-05-19,1.09, 4.02, -12.68, 2.55, 1.60, 7.57, repro,
2002-05-20,-0.09, 4.15, -6.23, 2.51, 1.59, 7.38, repro,
2002-05-21,-0.31, 3.24, -9.34, 2.46, 1.57, 7.36, repro,
2002-05-22,3.47, 3.75, -16.41, 2.48, 1.58, 7.40, repro,
2002-05-23,3.35, 4.55, -8.24, 2.57, 1.62, 7.53, repro,
2002-05-24,1.70, 4.64, -11.18, 2.54, 1.60, 7.57, repro,
2002-05-25,1.98, 5.05, -5.46, 2.51, 1.60, 7.60, repro,
2002-05-26,1.35, 3.28, -10.22, 2.52, 1.62, 7.53, repro,
2002-05-27,1.74, 4.74, -11.06, 3.70, 2.23, 10.55, repro,
2002-05-28,0.72, 4.26, -5.50, 4.05, 2.42, 12.50, repro,
2002-05-29,1.55, 0.75, -2.18, 3.25, 2.05, 10.01, repro,
2002-05-30,1.06, 3.81, -2.11, 4.04, 2.48, 13.18, repro,
2002-05-31,-1.07, 3.61, -7.62, 3.34, 2.03, 10.06, repro,
2002-06-01,1.94, 3.64, -15.17, 3.65, 2.27, 10.85, repro,
2002-06-03,7.23, 4.46, -11.99, 3.79, 2.27, 11.20, repro,
2002-06-04,2.37, 4.82, -13.66, 3.72, 2.34, 11.74, repro,
2002-06-05,7.30, 4.88, 8.56, 7.96, 4.43, 24.87, repro,
2002-06-06,1.10, 4.43, -3.82, 2.57, 1.61, 7.54, repro,
2002-06-07,2.96, 2.97, -7.71, 2.60, 1.65, 7.83, repro,
2002-06-08,2.37, 3.79, -10.62, 2.54, 1.60, 7.53, repro,
2002-06-09,0.22, 4.46, -7.68, 2.52, 1.62, 7.64, repro,
2002-06-10,3.40, 3.41, 0.22, 2.62, 1.63, 7.76, repro,
2002-06-11,0.69, 1.17, -4.88, 2.74, 1.78, 8.56, repro,
2002-06-12,1.63, 2.95, -6.40, 2.57, 1.65, 7.91, repro,
2002-06-13,2.64, 3.09, -8.48, 2.57, 1.63, 7.84, repro,
2002-06-14,0.14, 2.98, -3.92, 2.60, 1.70, 8.34, repro,
2002-06-15,2.04, 2.77, 0.45, 2.53, 1.62, 7.59, repro,
2002-06-16,2.52, 2.57, 2.75, 2.54, 1.63, 7.65, repro,
2002-06-17,-2.27, 3.17, 5.05, 2.54, 1.63, 7.67, repro,
2002-06-18,3.31, 3.42, -22.93, 7.31, 4.33, 20.39, repro,
2002-06-19,7.30, -12.07, -42.02, 23.68, 39.64, 53.99, repro,
2002-06-20,2.18, -0.61, 8.32, 6.31, 4.14, 19.49, repro,
2002-06-21,-7.44, 7.64, 6.53, 11.04, 6.09, 40.72, repro,
2002-06-22,0.33, 3.45, -2.32, 2.51, 1.60, 7.64, repro,
2002-06-23,2.97, 4.25, -1.76, 2.53, 1.62, 7.63, repro,
2002-06-24,3.32, 3.06, -1.94, 2.53, 1.58, 7.43, repro,
2002-06-25,2.81, 4.83, 8.84, 2.55, 1.61, 7.55, repro,
2002-06-26,-3.56, 1.95, -0.88, 2.70, 1.78, 8.32, repro,
2002-06-27,-1.02, 0.38, -0.94, 2.62, 1.74, 8.09, repro,
2002-06-28,-1.43, 2.31, 3.19, 2.64, 1.73, 7.96, repro,
2002-06-29,-0.42, 1.82, 1.85, 2.51, 1.61, 7.57, repro,
2002-06-30,0.52, 2.02, -4.21, 2.67, 1.71, 8.16, repro,
2002-07-01,-0.14, 2.01, -6.19, 2.86, 1.87, 8.64, repro,
2002-07-02,1.90, 4.22, 2.77, 3.26, 2.09, 10.10, repro,
2002-07-03,1.16, 3.63, -10.84, 3.34, 2.16, 10.32, repro,
2002-07-04,0.36, 2.64, -6.44, 2.99, 1.95, 9.40, repro,
2002-07-05,1.07, 5.60, -1.62, 3.07, 1.98, 9.33, repro,
2002-07-06,3.36, 5.23, -3.73, 3.32, 2.11, 9.88, repro,
2002-07-07,7.65, 3.22, 1.54, 3.58, 2.24, 10.05, repro,
2002-07-08,2.93, 3.67, 8.01, 2.88, 1.83, 8.48, repro,
2002-07-09,0.78, 2.52, -8.82, 2.88, 1.88, 8.93, repro,
2002-07-10,0.81, 4.68, -1.40, 2.72, 1.68, 7.88, repro,
2002-07-11,2.68, 2.89, -3.71, 2.59, 1.64, 7.73, repro,
2002-07-12,3.56, 3.26, 0.77, 3.07, 1.89, 9.10, repro,
2002-07-13,2.15, 2.42, 3.45, 2.48, 1.57, 7.39, repro,
2002-07-14,-0.33, 3.95, 3.66, 2.64, 1.65, 7.88, repro,
2002-07-15,0.96, 2.92, -0.28, 2.70, 1.69, 8.05, repro,
2002-07-16,0.65, 2.56, -1.33, 2.57, 1.62, 7.66, repro,
2002-07-17,-0.05, 2.50, -1.51, 2.66, 1.68, 8.03, repro,
2002-07-18,3.32, 1.81, -0.02, 2.83, 1.76, 8.15, repro,
2002-07-19,1.26, 3.21, 4.32, 2.72, 1.69, 8.00, repro,
2002-07-20,-4.59, 4.54, -5.79, 5.05, 3.02, 16.55, repro,
2002-07-26,0.27, 2.76, 3.66, 2.62, 1.63, 7.75, repro,
2002-07-27,2.16, 3.12, 2.95, 2.52, 1.59, 7.46, repro,
2002-07-28,1.33, 3.25, 1.13, 2.69, 1.71, 8.10, repro,
2002-07-29,1.71, 1.88, 6.72, 2.66, 1.71, 8.10, repro,
2002-07-30,3.05, 1.90, -0.89, 2.63, 1.69, 8.05, repro,
2002-07-31,2.61, 2.89, -2.56, 2.54, 1.61, 7.57, repro,
2002-08-01,4.79, 3.53, -9.00, 2.57, 1.61, 7.62, repro,
2002-08-02,1.39, 3.58, 0.00, 2.66, 1.67, 8.16, repro,
2002-08-03,2.68, 1.93, 0.35, 2.61, 1.65, 7.66, repro,
2002-08-04,2.20, 1.09, -1.50, 2.55, 1.63, 7.67, repro,
2002-08-05,1.78, 1.37, -0.49, 2.58, 1.63, 7.72, repro,
2002-08-06,-0.12, 1.95, -4.96, 2.62, 1.64, 7.84, repro,
2002-08-07,3.98, 0.87, 3.57, 2.77, 1.71, 8.11, repro,
2002-08-08,4.43, 1.95, -7.16, 2.66, 1.64, 7.85, repro,
2002-08-09,0.71, 2.64, 4.35, 2.69, 1.67, 8.00, repro,
2002-08-10,1.41, 2.68, 1.72, 2.78, 1.73, 8.10, repro,
2002-08-11,2.25, 1.71, 1.42, 2.59, 1.66, 7.77, repro,
2002-08-12,1.41, 2.63, 4.18, 2.77, 1.76, 8.35, repro,
2002-08-13,1.96, 0.56, -4.59, 2.74, 1.71, 8.29, repro,
2002-08-14,2.46, 0.67, 0.86, 2.59, 1.65, 7.82, repro,
2002-08-15,4.78, 0.42, 1.54, 2.53, 1.61, 7.61, repro,
2002-08-16,2.31, 1.52, 1.98, 2.53, 1.64, 7.65, repro,
2002-08-17,2.57, 0.74, 4.89, 2.55, 1.66, 7.99, repro,
2002-08-18,-0.09, 1.61, 3.49, 2.59, 1.64, 7.95, repro,
2002-08-19,1.35, 0.70, 8.37, 2.63, 1.68, 7.96, repro,
2002-08-20,1.54, 0.83, 0.81, 2.59, 1.66, 7.77, repro,
2002-08-21,3.46, 2.66, 3.81, 2.88, 1.84, 8.61, repro,
2002-08-22,1.56, 0.70, 5.00, 2.54, 1.61, 7.56, repro,
2002-08-23,2.86, 1.11, -2.10, 2.60, 1.63, 7.85, repro,
2002-08-24,3.12, 0.25, 3.46, 2.70, 1.68, 8.10, repro,